sat.trackr.live / text

‹ back to catalog

ONEWEB-0233

NORAD 48795 · 2021-045AE

PAYLOAD ACTIVE UNKNOWN

§ Identity

Operator
Country
UK
Launch date
2021-05-28
Launch site
VOSTO
Launch vehicle
Mass (kg)
RCS (m²)

Purposes: comms

External: N2YO · Heavens-Above · Gunter

§ Orbital elements

Epoch: 2026-05-25T01:11:16.924416Z

Period
109.46 min
Inclination
87.8988°
Eccentricity
0.0001603
Mean motion
13.15546788 rev/d
Perigee alt
1,200.6 km
Apogee alt
1,203.0 km
Semi-major
7,579.9 km
B*
-4.7357e-4
RAAN
263.8455°
Arg perigee
97.8995°
Mean anomaly
262.2318°
Rev number
24,125

§ Raw data

ONEWEB-02331 48795U 21045AE  26145.04950144 -.00000165  00000+0 -47357-3 0  99922 48795  87.8988 263.8455 0001603  97.8995 262.2318 13.15546788241259

JSON: /api/v1/satellites/48795 · /tle

For live sub-satellite position, see the globe view (requires WebGL).

§ Visibility from observer

Set your observer location to see the next 7 days of passes ≥ 10°. The values pass through the URL so the page stays shareable.

No JS? Fill the form by hand. The geolocation button needs JavaScript.